Find Starlink 3071

NORAD ID: 49147 Int'l Des: 2021-082 Owner: SPXS Country: US Constellation: starlink operational
LEOCIRCULAR

リアルタイム位置

3D地球を読み込み中...

Starlink 3071について

説明を読み込み中...

次回通過

Passes for default location (London). Set your location on the main map for personalized predictions.

高度履歴

Loading altitude history...

軌道要素

1 49147U 21082T 26121.73760102 .00000221 00000-0 26289-4 0 9992
2 49147 69.9995 120.7082 0003452 270.9966 89.0798 14.98331122254913
Epoch: May 1, 2026 • Age: 9 hours

現在のステータス

高度 595.2 km
速度 7.56 km/s
衛星直下点 -70.08°S, 123.36°E
打ち上げ日 Sep 14, 2021
運用期間 4.6 years
タイプ internet

技術仕様

分類 Payload
質量 297.00 kg
乾燥質量 275.00 kg
総質量 297.00 kg
長さ 0.20 m
直径 2.80 m
スパン 9.00 m
形状 Box + pan
製造者 SPXS
バスタイプ Starlink
フェーズステータス In Orbit
所有者/国 SPXS/US

Most Searched